Weather History for Fort Meade, MD

Change the Weather History Date:

Thursday, December 5, 2013

  Actual Average (KBWI) Record (KBWI)
Temperature  
Mean Temperature 58 °F 40 °F  
Max Temperature 68 °F 49 °F 75 °F (2001)
Min Temperature 48 °F 31 °F 16 °F (1966)
Degree Days  
Heating Degree Days 7 25  
Month to date heating degree days 123  
Since 1 July heating degree days 1027  
Cooling Degree Days 0 0  
Month to date cooling degree days 0  
Year to date cooling degree days 1164  
Growing Degree Days 8 (Base 50)    
Moisture  
Dew Point 52 °F    
Average Humidity 82    
Maximum Humidity 94    
Minimum Humidity 64    
Precipitation  
Precipitation 0.00 in 0.12 in 2.22 in (1945)
Month to date precipitation 0.59  
Year to date precipitation 39.10  
Snow  
Snow 0.00 in 0.00 in 7.40 in (2002)
Month to date snowfall 0.3  
Since 1 July snowfall 0.7  
Snow Depth -    
Sea Level Pressure  
Sea Level Pressure 30.03 in    
Wind  
Wind Speed 3 mph (SSW)    
Max Wind Speed 13 mph    
Max Gust Speed 22 mph    
Visibility 8 miles    
Events      
T = Trace of Precipitation, MM = Missing Value Source: NWS Daily Summary

Daily Weather History Graph

Daily Weather History Graph

Search for Another Location

Airport:

Trip Planner

Search our weather history database for the weather conditions in past years. The results will help you decide how hot, cold, wet, or windy it might be!

Date:

Astronomy

Dec. 05, 2013 Rise Set
Actual Time 7:11 AM EST 4:44 PM EST
Civil Twilight 6:41 AM EST 5:14 PM EST
Nautical Twilight 6:08 AM EST 5:47 PM EST
Astronomical Twilight 5:35 AM EST 6:19 PM EST
Moon 9:30 AM EST (12/5) 8:01 PM EST (12/5)
Length of Visible Light 10h 32m
Length of Day
9h 33m
Waxing Crescent, 10% of the Moon is Illuminated
Dec 5
Waxing Crescent
Dec 9
First Quarter
Dec 17
Full
Dec 25
Last Quarter
Jan 1
New

Hourly Weather History & Observations

Time (EST) Temp. Dew Point Humidity Pressure Visibility Wind Dir Wind Speed Gust Speed Precip Events Conditions
12:06 AM 48.2 °F 44.6 °F 87% 30.11 in 10.0 mi Calm Calm - N/A   Overcast
12:27 AM 48.2 °F 44.6 °F 87% 30.09 in 7.0 mi ENE 3.5 mph - N/A   Overcast
12:45 AM 48.2 °F 44.6 °F 87% 30.09 in 7.0 mi ESE 3.5 mph - N/A   Overcast
1:06 AM 48.2 °F 44.6 °F 87% 30.09 in 7.0 mi Calm Calm - N/A   Overcast
1:27 AM 48.2 °F 44.6 °F 87% 30.09 in 7.0 mi Calm Calm - N/A   Overcast
1:45 AM 48.2 °F 44.6 °F 87% 30.10 in 7.0 mi Calm Calm - N/A   Overcast
2:06 AM 48.2 °F 44.6 °F 87% 30.09 in 7.0 mi Calm Calm - N/A   Overcast
2:27 AM 50.0 °F 44.6 °F 82% 30.08 in 7.0 mi East 3.5 mph - N/A   Overcast
2:45 AM 50.0 °F 44.6 °F 82% 30.09 in 7.0 mi Calm Calm - N/A   Overcast
3:06 AM 48.2 °F 44.6 °F 87% 30.09 in 7.0 mi Calm Calm - N/A   Overcast
3:27 AM 50.0 °F 46.4 °F 87% 30.07 in 7.0 mi Calm Calm - N/A   Overcast
3:45 AM 50.0 °F 46.4 °F 87% 30.08 in 7.0 mi Calm Calm - N/A   Overcast
4:06 AM 50.0 °F 46.4 °F 87% 30.08 in 7.0 mi Calm Calm - N/A   Overcast
4:27 AM 50.0 °F 46.4 °F 87% 30.08 in 7.0 mi Calm Calm - N/A   Overcast
4:45 AM 50.0 °F 46.4 °F 87% 30.07 in 7.0 mi Calm Calm - N/A   Overcast
5:03 AM 50.0 °F 46.4 °F 87% 30.07 in 7.0 mi Calm Calm - N/A   Overcast
5:27 AM 50.0 °F 46.4 °F 87% 30.07 in 10.0 mi Calm Calm - N/A   Overcast
5:45 AM 50.0 °F 46.4 °F 87% 30.07 in 7.0 mi Calm Calm - N/A   Overcast
6:06 AM 50.0 °F 46.4 °F 87% 30.06 in 7.0 mi SE 3.5 mph - N/A   Overcast
6:27 AM 51.8 °F 48.2 °F 88% 30.07 in 7.0 mi Calm Calm - N/A   Overcast
6:45 AM 50.0 °F 48.2 °F 94% 30.07 in 7.0 mi SE 3.5 mph - N/A   Overcast
7:06 AM 51.8 °F 50.0 °F 94% 30.06 in 5.0 mi SE 3.5 mph - N/A   Overcast
7:27 AM 51.8 °F 50.0 °F 94% 30.07 in 5.0 mi Calm Calm - N/A   Overcast
7:48 AM 51.8 °F 50.0 °F 94% 30.07 in 4.0 mi South 3.5 mph - N/A   Overcast
8:06 AM 51.8 °F 50.0 °F 94% 30.08 in 3.0 mi SSE 3.5 mph - N/A   Overcast
8:27 AM 51.8 °F 50.0 °F 94% 30.08 in 2.5 mi Calm Calm - N/A   Unknown
8:48 AM 51.8 °F 50.0 °F 94% 30.08 in 3.0 mi Calm Calm - N/A   Overcast
9:06 AM 53.6 °F 51.8 °F 94% 30.09 in 3.0 mi Calm Calm - N/A   Overcast
9:27 AM 53.6 °F 51.8 °F 94% 30.09 in 4.0 mi Calm Calm - N/A   Overcast
9:48 AM 55.4 °F 51.8 °F 88% 30.08 in 5.0 mi Calm Calm - N/A   Overcast
10:06 AM 55.4 °F 51.8 °F 88% 30.08 in 5.0 mi Calm Calm - N/A   Overcast
10:27 AM 57.2 °F 53.6 °F 88% 30.08 in 7.0 mi South 4.6 mph - N/A   Overcast
10:48 AM 59.0 °F 53.6 °F 82% 30.06 in 10.0 mi SSW 8.1 mph - N/A   Overcast
11:06 AM 59.0 °F 53.6 °F 82% 30.05 in 10.0 mi SW 6.9 mph - N/A   Overcast
11:27 AM 59.0 °F 53.6 °F 82% 30.04 in 10.0 mi SW 6.9 mph - N/A   Overcast
11:48 AM 60.8 °F 53.6 °F 77% 30.03 in 10.0 mi SW 5.8 mph - N/A   Overcast
12:06 PM 62.6 °F 53.6 °F 72% 30.01 in 10.0 mi SSW 10.4 mph - N/A   Mostly Cloudy
12:27 PM 62.6 °F 53.6 °F 72% 30.01 in 10.0 mi SSW 10.4 mph - N/A   Scattered Clouds
12:48 PM 64.4 °F 53.6 °F 68% 30.00 in 10.0 mi SW 6.9 mph - N/A   Clear
1:06 PM 64.4 °F 53.6 °F 68% 30.00 in 10.0 mi SSW 8.1 mph - N/A   Clear
1:27 PM 66.2 °F 53.6 °F 64% 29.99 in 10.0 mi South 8.1 mph - N/A   Clear
1:48 PM 68.0 °F 55.4 °F 64% 29.99 in 10.0 mi SSW 9.2 mph - N/A   Clear
2:06 PM 68.0 °F 55.4 °F 64% 29.98 in 10.0 mi South 6.9 mph - N/A   Clear
2:27 PM 68.0 °F 55.4 °F 64% 29.97 in 10.0 mi SSW 10.4 mph - N/A   Scattered Clouds
2:48 PM 68.0 °F 55.4 °F 64% 29.97 in 10.0 mi SW 12.7 mph 21.9 mph N/A   Mostly Cloudy
3:06 PM 68.0 °F 55.4 °F 64% 29.98 in 10.0 mi SW 10.4 mph - N/A   Scattered Clouds
3:27 PM 66.2 °F 55.4 °F 68% 29.98 in 10.0 mi South 10.4 mph - N/A   Mostly Cloudy
3:48 PM 66.2 °F 57.2 °F 73% 29.98 in 10.0 mi SSW 8.1 mph 18.4 mph N/A   Overcast
4:09 PM 64.4 °F 57.2 °F 77% 29.98 in 10.0 mi SSW 8.1 mph - N/A   Overcast
4:27 PM 64.4 °F 57.2 °F 77% 29.98 in 10.0 mi SSW 8.1 mph - N/A   Overcast
4:48 PM 64.4 °F 57.2 °F 77% 29.98 in 10.0 mi SSW 5.8 mph - N/A   Overcast
5:09 PM 64.4 °F 57.2 °F 77% 29.97 in 10.0 mi SSW 4.6 mph - N/A   Overcast
5:27 PM 62.6 °F 55.4 °F 77% 29.98 in 10.0 mi SW 6.9 mph - N/A   Overcast
5:48 PM 62.6 °F 55.4 °F 77% 29.99 in 10.0 mi SW 9.2 mph - N/A   Overcast
6:09 PM 62.6 °F 55.4 °F 77% 29.99 in 10.0 mi SW 9.2 mph 18.4 mph N/A   Overcast
6:27 PM 62.6 °F 55.4 °F 77% 29.99 in 10.0 mi SSW 11.5 mph 17.3 mph N/A   Overcast
6:48 PM 62.6 °F 55.4 °F 77% 29.99 in 10.0 mi SSW 9.2 mph 16.1 mph N/A   Overcast
7:09 PM 62.6 °F 57.2 °F 82% 30.00 in 10.0 mi SW 10.4 mph - N/A   Overcast
7:27 PM 62.6 °F 57.2 °F 82% 29.99 in 10.0 mi SW 8.1 mph 16.1 mph N/A   Overcast
7:48 PM 62.6 °F 57.2 °F 82% 29.99 in 10.0 mi SW 8.1 mph 16.1 mph N/A   Overcast
8:09 PM 62.6 °F 57.2 °F 82% 29.99 in 10.0 mi SSW 6.9 mph - N/A   Overcast
8:27 PM 62.6 °F 57.2 °F 82% 29.99 in 10.0 mi SSW 5.8 mph - N/A   Overcast
8:48 PM 62.6 °F 57.2 °F 82% 29.98 in 10.0 mi SSW 5.8 mph - N/A   Overcast
9:09 PM 62.6 °F 57.2 °F 82% 29.98 in 10.0 mi SSW 4.6 mph - N/A   Overcast
9:27 PM 62.6 °F 57.2 °F 82% 29.98 in 10.0 mi SSW 5.8 mph - N/A   Overcast
9:48 PM 62.6 °F 59.0 °F 88% 29.96 in 10.0 mi SSW 8.1 mph - N/A   Overcast
10:09 PM 62.6 °F 59.0 °F 88% 29.95 in 10.0 mi South 6.9 mph - N/A   Overcast
10:27 PM 62.6 °F 59.0 °F 88% 29.97 in 10.0 mi SW 10.4 mph - N/A   Overcast
10:45 PM 62.6 °F 59.0 °F 88% 29.97 in 10.0 mi SW 10.4 mph 17.3 mph N/A   Overcast
11:09 PM 62.6 °F 59.0 °F 88% 29.97 in 10.0 mi SW 9.2 mph - N/A   Overcast
11:27 PM 62.6 °F 59.0 °F 88% 29.96 in 10.0 mi WSW 8.1 mph 18.4 mph N/A   Overcast
11:48 PM 64.4 °F 59.0 °F 83% 29.96 in 10.0 mi SW 9.2 mph 18.4 mph N/A   Overcast